Simultaneous Nadir Overpasses (SNOs) Predictions

Prediction of SNOs near equator between NOAA-19 and NPP Satellite Orbit:

Table of predicted SNOs near equator for the next 14.0 days since TLE Epoch: 6/24/2012
Index Date (NOAA-19) Time (NOAA-19) NOAA-19 Lat,Lon Date (NPP) Time (NPP) NPP Lat,Lon Distance(km) Time Diff (sec)
1 07/04/2012 04:48:18 -29.94, -54.03 07/04/2012 04:43:14 -29.72, -54.96 93.27 304
2 07/04/2012 05:39:20 29.97, 113.21 07/04/2012 05:34:03 29.77, 112.32 88.01 317
3 07/04/2012 06:30:24 -29.99, -79.57 07/04/2012 06:24:46 -29.85, -80.37 79.39 338
4 07/04/2012 07:21:25 29.96, 87.69 07/04/2012 07:15:33 29.78, 86.94 74.22 352
5 07/04/2012 08:12:29 -29.98,-105.08 07/04/2012 08:06:16 -29.87,-105.75 65.57 373
6 07/04/2012 09:03:30 29.95, 62.17 07/04/2012 08:57:03 29.79, 61.57 60.44 387
7 07/04/2012 09:54:34 -29.97,-130.60 07/04/2012 09:47:46 -29.88,-131.13 51.75 408
8 07/04/2012 10:45:36 29.99, 36.63 07/04/2012 10:38:35 29.92, 36.16 46.59 421
9 07/04/2012 11:36:39 -29.95,-156.12 07/04/2012 11:29:16 -29.89,-156.51 37.93 443
10 07/04/2012 12:27:41 29.98, 11.12 07/04/2012 12:20:05 29.94, 10.78 32.78 456
11 07/04/2012 13:18:44 -29.94, 178.36 07/04/2012 13:10:46 -29.90, 178.12 24.11 478
12 07/04/2012 14:09:46 29.97, -14.40 07/04/2012 14:01:35 29.95, -14.60 18.98 491
13 07/04/2012 15:00:50 -29.99, 152.83 07/04/2012 14:52:17 -29.97, 152.72 10.26 513
14 07/04/2012 15:51:51 29.96, -39.92 07/04/2012 15:43:05 29.96, -39.97 5.24 526
15 07/04/2012 16:40:28 -21.46, 129.56 07/04/2012 16:31:21 -21.46, 129.57 0.57 547
16 07/04/2012 17:26:10 2.72, -58.79 07/04/2012 17:16:51 2.74, -58.79 2.45 559
17 07/04/2012 18:17:29 -3.76, 108.22 07/04/2012 18:07:49 -3.75, 108.31 10.44 580
18 07/04/2012 19:08:50 4.76, -84.78 07/04/2012 18:58:56 4.81, -84.63 17.19 594




NCC Satellite Simultaneous Nadir Overpasses (SNOs) Prediction Service
